x

Cape Elizabeth- 45nm Nw Of Aberdeen, Wa (46041) Wave Buoy

12:50 - Thu 29th Sep 2016 All times are PDT. -7 hours from GMT.

  • Sig Wave height 4.9ft
  • Swell Direction
  • Peak Period 6s
  • Average Period 5s
  • Wind
    20mph, 22mph gusts
  • Sea Temp 57°f
  • Air Temp 55°f
  • Sea Pressure 1018.2mb
  • Cape Elizabeth- 45nm Nw Of Aberdeen, Wa
  • Cape Elizabeth- 45nm Nw Of Aberdeen, Wa

More Historic Weather Station data

Upgrade to MSW Pro to gain access to the past 30 days of data for over 8000 Wavebouys and Weather Stations around the globe.

Join Pro

Comparision Forecast

View Surf forecast
   
jeu. 09/29 12:50 5ft 6s 5s 20 22 mph 1018.2mb 57f 55f
mer. 09/28 11:50 5ft 7s 5s 20 25 mph 1018.1mb 57f 55f
10:50 5ft 5s 5s 22 27 mph 1018.4mb 57f 55f
9:50 5.5ft 7s 5s 22 27 mph 1018.3mb 57f 55f
8:50 5.5ft 7s 5s 25 29 mph 1018.1mb 57f 56f
7:50 6ft 6s 5s 25 29 mph 1018mb 57f 56f
6:50 5.5ft 7s 5s 25 27 mph 1017.8mb 57f 56f
5:50 5ft 8s 5s 25 27 mph 1017.9mb 58f 56f
4:50 5.5ft 6s 5s 22 27 mph 1018.4mb 58f 55f
3:50 5ft 8s 5s 20 22 mph 1018.7mb 58f 55f
2:50 5ft 7s 6s 16 20 mph 1018.8mb 58f 55f
1:50 4.5ft 7s 5s 13 16 mph 1019.3mb 58f 55f
12:50 4.5ft 7s 6s 13 18 mph 1019.5mb 58f 55f
11:50 5ft 7s 6s 16 18 mph 1019.7mb 58f 55f
10:50 5ft 8s 5s 13 16 mph 1019.8mb 58f 56f
9:50 6ft 7s 6s 13 16 mph 1019.8mb 58f 55f
8:50 6ft 8s 6s 13 16 mph 1019.8mb 58f 56f
7:50 6ft 7s 6s 16 18 mph 1019.5mb 57f 56f
6:50 6ft 7s 6s 16 18 mph 1019.4mb 57f 55f
5:50 6ft 7s 6s 13 16 mph 1019.4mb 57f 55f
4:50 6ft 8s 6s 11 16 mph 1019.4mb 57f 55f
3:50 5.5ft 8s 6s 13 16 mph 1019.5mb 57f 55f
2:50 5ft 7s 6s 16 18 mph 1019.7mb 57f 55f
1:50 5.5ft 7s 6s 20 22 mph 1019.5mb 56f 55f
12:50 5.5ft 10s 6s 20 25 mph 1019.7mb 56f 55f
mar. 09/27 11:50 5.5ft 8s 5s 20 25 mph 1019.6mb 56f 55f
10:50 6ft 10s 5s 22 27 mph 1019.9mb 56f 55f
9:50 6ft 9s 5s 22 27 mph 1020.1mb 56f 55f
8:50 6.5ft 9s 6s 20 25 mph 1020.3mb 56f 55f
7:50 7ft 9s 6s 20 25 mph 1020.4mb 56f 55f
6:50 7.5ft 8s 6s 20 25 mph 1020.6mb 56f 55f
5:50 7ft 8s 6s 20 22 mph 1021.3mb 56f 56f
4:50 7ft 8s 6s 13 18 mph 1021.8mb 56f 56f
3:50 8ft 8s 6s 18 22 mph 1021.8mb 56f 55f
2:50 7ft 7s 6s 20 22 mph 1022.1mb 56f 53f
1:50 7.5ft 8s 6s 16 18 mph 1022.7mb 57f 54f
12:50 8ft 8s 6s 16 20 mph 1022.6mb 56f 54f
11:50 8ft 8s 6s 16 18 mph 1022.9mb 56f 55f
10:50 8ft 9s 6s 20 25 mph 1022.9mb 56f 55f
9:50 8ft 8s 6s 20 25 mph 1022.8mb 56f 55f
8:50 7ft 11s 6s 22 27 mph 1022.5mb 56f 56f
7:50 6.5ft 9s 6s 22 27 mph 1022.4mb 56f 56f
6:50 6.5ft 11s 6s 22 27 mph 1022.1mb 56f 56f
5:50 6.5ft 11s 6s 22 27 mph 1022.1mb 57f 56f
4:50 6.5ft 11s 6s 20 25 mph 1021.9mb 57f 57f
3:50 6ft 11s 6s 20 27 mph 1021.6mb 57f 57f
2:50 5.5ft 11s 6s 20 25 mph 1021.1mb 57f 57f
1:50 6.5ft 11s 8s 22 27 mph 1020.6mb 57f 57f
12:50 6ft 11s 9s 11 13 mph 1020.2mb 57f 60f
lun. 09/26 11:50 7ft 11s 9s 9 11 mph 1019.9mb 57f 59f
10:50 6.5ft 11s 9s 4 7 mph 1019.6mb 57f 59f
9:50 6ft 10s 8s 9
mph
1019.3mb 57f 59f
8:50 6ft 10s 9s 7
mph
1019mb 57f 59f
7:50 6.5ft 9s 9s 7 9 mph 1018.7mb 57f 58f
6:50 6ft 10s 9s 7 9 mph 1018.3mb 58f 59f
5:50 5.5ft 10s 9s 7 9 mph 1018.3mb 58f 59f
4:50 5.5ft 9s 8s 7 9 mph 1018.6mb 57f 59f
3:50 5ft 10s 8s 9 11 mph 1018.8mb 57f 60f
2:50 4.5ft 10s 8s 9 11 mph 1018.8mb 57f 60f
1:50 4.5ft 10s 8s 11 13 mph 1018.9mb 57f 60f
12:50 4.5ft 10s 8s 9 11 mph 1019mb 58f 60f
11:50 5ft 10s 8s 7
mph
1018.8mb 58f 59f
10:50 5ft 9s 8s 2 4 mph 1019.1mb 57f 59f
9:50 5.5ft 10s 8s 2
mph
1019mb 57f 58f
8:50 5.5ft 10s 8s 2 4 mph 1019.1mb 57f 59f
7:50 5.5ft 11s 8s 2 4 mph 1019.2mb 56f 58f
6:50 5.5ft 9s 8s 4 7 mph 1019.5mb 57f 58f
5:50 6ft 10s 8s 4
mph
1019.8mb 57f 58f
4:50 6ft 9s 8s 7 9 mph 1019.9mb 57f 58f
3:50 5.5ft 10s 8s 4 7 mph 1020.3mb 57f 57f
2:50 5ft 9s 8s 7 9 mph 1020.9mb 57f 57f
1:50 6ft 10s 8s 4 7 mph 1021.6mb 57f 57f
12:50 5.5ft 10s 8s 7
mph
1022.1mb 57f 57f
dim. 09/25 11:50 5.5ft 10s 8s 7 9 mph 1022.7mb 57f 58f
10:50 5.5ft 10s 8s 7 9 mph 1023.1mb 57f 58f
9:50 5.5ft 11s 9s 11
mph
1023.5mb 57f 58f
8:50 6ft 11s 9s 11
mph
1024.1mb 57f 58f
7:50 5ft 11s 9s 9 11 mph 1024.1mb 57f 58f
6:50 5ft 11s 9s 9 11 mph 1024.6mb 58f 59f
5:50 6.5ft 11s 9s 7 9 mph 1025.3mb 58f 60f
4:50 5.5ft 10s 8s 4 7 mph 1026.2mb 59f 61f
3:50 6.5ft 10s 8s 4 7 mph 1026.9mb 60f 62f
2:50 7ft 10s 8s  -  2 mph 1027.6mb 59f 62f
1:50 6ft 10s 8s  -  2 mph 1028.2mb 58f 60f
12:50 7ft 10s 8s 2 4 mph 1028.5mb 57f 58f
11:50 7ft 10s 8s 4 7 mph 1028.7mb 56f 58f
10:50 7ft 10s 8s 4 7 mph 1028.6mb 56f 58f
9:50 6ft 10s 7s 4 7 mph 1028.6mb 57f 58f